[[{"header":{"parameterUnit":"m.s-1","parameterCategory":1,"la1":30.2992,"la2":30.254,"lo1":-89.0895,"lo2":-89.0443,"dy":0.0025,"dx":0.0025,"nx":19,"ny":19,"refTime":"2026-04-12T21:00:00:Z","depth":0,"parameterNumber":2,"parameterNumberName":"U-component_of_WINDS"},"data":[0,0,0,-3.3515,-3.3518,-3.3636,-3.3637,-3.3789,-3.379,0,0,0,0,0,0,0,0,0,0,0,-3.3482,-3.3483,-3.3515,-3.3518,-3.3636,-3.3637,-3.3789,-3.379,0,0,0,0,0,0,0,0,0,0,0,-3.3481,-3.3483,-3.3484,-3.3519,-3.3636,-3.3637,-3.3789,-3.3699,0,0,0,0,0,0,0,0,0,0,-3.3584,-3.3555,-3.3482,-3.3484,-3.3519,-3.3636,-3.3637,-3.3694,-3.3704,-3.3737,0,-3.3766,0,-3.3781,-3.3801,-3.3801,0,0,0,-3.3517,-3.3546,-3.3577,-3.3484,-3.352,-3.3636,-3.3583,-3.37,-3.3711,-3.375,-3.3768,-3.3774,-3.3783,-3.3802,-3.3803,-3.3992,-3.3993,0,0,-3.3511,-3.3504,-3.3569,-3.3584,-3.3567,-3.3579,-3.3586,-3.3707,-3.3726,-3.3769,-3.3777,-3.3786,-3.3803,-3.3804,-3.3991,-3.3993,0,0,0,-3.3493,-3.3499,-3.3527,-3.3578,-3.3599,-3.3582,-3.3591,-3.3721,-3.373,-3.3779,-3.3787,-3.3804,-3.3806,-3.399,-3.3992,-3.4031,0,0,0,-3.3489,-3.3489,-3.3524,-3.3521,-3.3597,-3.3661,-3.3602,-3.3722,-3.3736,-3.3787,-3.3804,-3.3807,-3.3989,-3.3991,-3.4027,-3.405,0,0,0,-3.3474,-3.3487,-3.3505,-3.3521,-3.3571,-3.366,-3.3676,-3.3725,-3.3741,-3.3802,-3.3808,-3.3989,-3.3991,-3.4025,-3.4045,-3.4096,0,0,0,-3.3456,-3.3538,-3.3505,-3.3601,-3.357,-3.3684,-3.3675,-3.376,-3.3817,-3.3805,-3.399,-3.3992,-3.4024,-3.4042,-3.4093,-3.4137,-3.4156,0,0,-3.3556,-3.355,-3.3607,-3.3581,-3.3698,-3.3666,-3.3789,-3.3847,-3.386,-3.3947,-3.3952,-3.4029,-3.4045,-3.4096,-3.4263,-3.4278,0,0,0,-3.3636,-3.3677,-3.3709,-3.3763,-3.381,-3.3851,-3.3891,-3.3913,-3.3987,-3.3903,-3.4062,-3.4072,-3.4102,-3.4124,-3.4136,-3.4162,-3.4002,-3.4002,-3.4001,-3.3767,-3.3778,-3.3872,-3.3898,-3.395,-3.399,-3.4033,-3.4069,-3.4066,-3.4103,-3.4128,-3.4229,-3.4253,-3.4263,-3.4289,-3.4154,-3.4154,-3.4155,-3.4155,-3.3913,-3.3971,-3.3965,-3.4053,-3.4065,-3.4139,-3.4182,-3.4177,-3.4247,-3.4211,-3.4238,-3.4195,-3.4278,-3.4302,-3.4158,-3.4157,-3.4157,-3.4157,-3.4156,-3.3999,-3.4028,-3.4054,-3.4132,-3.4191,-3.4214,-3.4282,-3.4291,-3.4299,-3.4326,-3.4353,-3.4352,-3.4351,-3.4339,-3.4339,-3.4339,-3.434,-3.434,-3.434,-3.4076,-3.4104,-3.416,-3.4216,-3.4252,-3.4299,-3.4341,-3.4376,-3.4417,-3.4417,-3.4418,-3.4409,-3.4285,-3.4252,-3.4346,-3.4345,-3.4344,-3.4343,-3.4343,-3.4217,-3.4187,-3.4274,-3.4309,-3.4376,-3.4433,-3.4444,-3.4514,-3.4544,-3.4577,-3.4564,-3.4471,-3.4465,-3.4456,-3.4429,-3.4562,-3.4562,-3.4562,-3.4562,-3.4288,-3.4286,-3.4376,-3.4432,-3.4488,-3.4506,-3.4603,-3.4637,-3.4667,-3.4686,-3.4669,-3.4634,-3.4624,-3.4624,-3.4611,-3.4586,-3.4756,-3.4756,-3.4756,-3.4374,-3.4379,-3.4459,-3.4488,-3.4541,-3.4586,-3.4678,-3.4742,-3.477,-3.4764,-3.4701,-3.4693,-3.4637,-3.4619,-3.461,-3.4589,-3.4543,0,0]},{"header":{"parameterUnit":"m.s-1","parameterCategory":1,"la1":30.2992,"la2":30.254,"lo1":-89.0895,"lo2":-89.0443,"dy":0.0025,"dx":0.0025,"nx":19,"ny":19,"refTime":"2026-04-12T21:00:00:Z","depth":0,"parameterNumber":3,"parameterNumberName":"V-component_of_WINDS"},"data":[0,0,0,3.7273,3.7276,3.7423,3.7424,3.7608,3.761,0,0,0,0,0,0,0,0,0,0,0,3.7226,3.7227,3.7273,3.7276,3.7423,3.7424,3.7608,3.761,0,0,0,0,0,0,0,0,0,0,0,3.7225,3.7227,3.7228,3.7277,3.7423,3.7424,3.7608,3.7498,0,0,0,0,0,0,0,0,0,0,3.7356,3.7309,3.7226,3.7228,3.7278,3.7423,3.7424,3.7493,3.7505,3.754,0,3.7568,0,3.7592,3.7622,3.7623,0,0,0,3.7279,3.7299,3.7342,3.7228,3.7279,3.7423,3.7358,3.75,3.7514,3.7556,3.7571,3.7578,3.7595,3.7623,3.7624,3.781,3.7811,0,0,3.7271,3.7251,3.7332,3.735,3.7326,3.7353,3.7362,3.7508,3.7524,3.7572,3.7582,3.7598,3.7624,3.7626,3.781,3.7811,0,0,0,3.7246,3.7245,3.7284,3.7342,3.7369,3.7357,3.7368,3.7518,3.7532,3.7585,3.76,3.7625,3.7628,3.7809,3.781,3.7824,0,0,0,3.7241,3.723,3.728,3.7269,3.7366,3.7445,3.7374,3.7522,3.7539,3.7599,3.7625,3.7629,3.7808,3.7809,3.7822,3.7834,0,0,0,3.7218,3.7227,3.7247,3.7268,3.733,3.7443,3.7466,3.7526,3.7549,3.7623,3.763,3.7808,3.7809,3.782,3.7831,3.7877,0,0,0,3.7187,3.7259,3.7247,3.7334,3.7329,3.7451,3.7465,3.7558,3.7623,3.7626,3.7808,3.781,3.782,3.783,3.7874,3.791,3.7923,0,0,3.7266,3.7268,3.7321,3.7314,3.7433,3.743,3.7552,3.7632,3.7659,3.7759,3.7764,3.7823,3.7831,3.7876,3.8005,3.8015,0,0,0,3.7339,3.7377,3.7413,3.7473,3.7535,3.759,3.7654,3.7684,3.7769,3.7705,3.7853,3.7859,3.7886,3.7903,3.7912,3.7937,3.7818,3.7817,3.7817,3.7421,3.7451,3.7541,3.7588,3.7647,3.7712,3.7763,3.7814,3.7828,3.7863,3.7892,3.7966,3.7987,3.7993,3.8018,3.7914,3.7914,3.7914,3.7914,3.754,3.7597,3.7614,3.7706,3.7737,3.7816,3.7882,3.7889,3.7968,3.7947,3.7972,3.7945,3.8003,3.8027,3.7916,3.7916,3.7915,3.7915,3.7915,3.7596,3.7629,3.7663,3.7754,3.7821,3.7868,3.7942,3.7969,3.7995,3.8021,3.8054,3.8054,3.8056,3.8035,3.8035,3.8036,3.8036,3.8036,3.8036,3.764,3.7679,3.7737,3.7809,3.7852,3.7911,3.7978,3.8022,3.8077,3.8091,3.8091,3.8101,3.8004,3.7978,3.804,3.8039,3.8039,3.8039,3.8038,3.7747,3.7727,3.7816,3.7859,3.7947,3.8011,3.8045,3.8131,3.8171,3.8207,3.8213,3.8137,3.814,3.8134,3.8112,3.8206,3.8206,3.8206,3.8206,3.7793,3.7798,3.7895,3.7961,3.803,3.8069,3.8171,3.8225,3.8277,3.8304,3.8295,3.827,3.8262,3.8271,3.8261,3.8241,3.8366,3.8366,3.8366,3.786,3.7872,3.7953,3.8002,3.8073,3.8133,3.823,3.8307,3.8363,3.8373,3.8326,3.8319,3.8279,3.8264,3.8271,3.8255,3.822,0,0]}]]